sat.trackr.live / text

‹ back to catalog

2025-108B

NORAD 64088 · 2025-108B

PAYLOAD ACTIVE UNKNOWN

§ Identity

Operator
Country
PRC
Launch date
2025-05-21
Launch site
JSC
Launch vehicle
Mass (kg)
RCS (m²)

External: N2YO · Heavens-Above · Gunter

§ Orbital elements

Epoch: 2026-05-25T04:31:45.204096Z

Period
94.86 min
Inclination
97.4728°
Eccentricity
0.0009591
Mean motion
15.18068917 rev/d
Perigee alt
505.1 km
Apogee alt
518.3 km
Semi-major
6,889.8 km
B*
4.0146e-4
RAAN
221.2689°
Arg perigee
94.7393°
Mean anomaly
265.4936°
Rev number
5,587

§ Raw data

2025-108B1 64088U 25108B   26145.18871764  .00008123  00000+0  40146-3 0  99932 64088  97.4728 221.2689 0009591  94.7393 265.4936 15.18068917 55870

JSON: /api/v1/satellites/64088 · /tle

For live sub-satellite position, see the globe view (requires WebGL).

§ Visibility from observer

Set your observer location to see the next 7 days of passes ≥ 10°. The values pass through the URL so the page stays shareable.

No JS? Fill the form by hand. The geolocation button needs JavaScript.